Theta_e
320 320 321 322 322 323 324 325 325 326 327 327 325 325 325 324 324 320 311 316 321 329 322 315 315 314 315 311 311 309 302 299 300 301 303 306 304 307 308 307 307 306 306 306 308
320 320 321 321 322 323 323 324 325 326 326 327 325 325 324 323 318 312 321 328 329 330 313 311 309 311 309 309 310 306 301 300 304 305 304 306 306 306 305 305 304 305 306 307 308
320 320 321 321 321 322 323 324 325 326 326 326 326 325 324 322 313 310 325 328 331 322 314 313 312 309 305 308 307 305 301 302 303 305 307 305 305 307 305 303 306 305 305 305 306
321 321 321 321 321 322 323 324 325 326 326 326 326 324 323 318 303 314 326 328 330 317 314 312 309 305 304 303 306 302 303 303 305 306 305 304 306 304 305 304 305 305 305 305 304
322 321 321 321 321 322 322 323 324 325 326 326 325 324 318 310 310 320 325 327 317 314 312 309 305 305 302 303 304 303 303 304 306 305 305 305 304 304 304 304 304 303 303 303 303
321 321 321 320 321 321 322 323 324 325 325 323 324 321 313 306 318 318 315 315 314 313 311 310 306 307 304 303 302 304 304 304 305 304 304 302 303 303 305 304 302 302 301 301 300
322 321 320 321 321 321 321 322 323 325 322 322 322 318 311 311 319 317 313 312 313 313 309 310 310 307 306 302 305 303 300 303 303 303 302 303 300 299 304 302 301 301 301 300 299
321 321 320 320 321 321 321 322 323 323 321 322 322 314 309 312 322 315 315 311 313 313 312 312 312 308 306 305 303 300 300 298 303 302 301 302 298 303 302 301 300 300 300 299 298
320 320 320 320 320 320 320 321 321 320 320 322 316 312 307 315 312 317 315 310 310 311 310 310 311 306 304 300 299 300 296 298 300 302 301 300 300 301 302 302 301 301 300 299 298
319 319 319 320 320 320 320 321 323 318 318 316 313 308 309 305 309 312 312 312 308 308 306 306 305 301 301 300 293 297 297 298 298 300 299 299 299 300 300 301 302 301 300 299 298
319 319 319 319 320 320 320 321 313 311 313 309 309 309 305 305 309 309 310 308 308 306 301 304 299 296 300 301 302 300 298 298 301 300 298 299 299 302 300 300 301 301 299 298 297
319 319 320 320 320 320 320 313 313 311 306 313 312 310 307 307 301 305 309 304 302 299 302 298 295 302 304 302 300 298 296 297 301 298 296 298 298 302 302 300 301 301 300 298 296
318 318 319 320 320 319 316 315 315 313 306 307 311 309 306 305 303 303 306 304 301 299 298 298 300 301 299 297 296 297 296 296 297 296 297 296 295 298 302 301 301 301 301 299 296
318 318 318 319 315 316 312 320 320 317 299 300 303 309 305 306 302 306 307 303 298 298 299 299 302 297 297 296 297 294 300 297 296 294 291 297 289 298 301 298 297 297 298 297 297
318 318 318 319 314 312 315 321 322 315 286 302 302 307 305 304 302 298 305 301 298 297 297 297 295 294 294 297 299 296 298 297 296 294 294 294 289 296 301 297 296 296 296 296 296
318 317 318 317 318 318 319 320 317 296 286 296 299 298 298 302 298 298 298 302 303 298 297 298 298 298 298 296 298 298 296 294 294 294 287 292 292 294 295 296 299 296 295 295 294
318 317 316 319 311 317 317 313 295 289 300 294 295 297 298 296 295 296 294 293 293 290 292 296 296 298 298 294 295 296 294 289 286 285 285 292 292 295 300 297 299 295 294 295 294
318 317 316 318 319 313 314 302 288 294 296 299 297 297 295 296 295 294 293 293 297 298 296 293 291 297 297 298 296 293 295 290 284 285 288 286 286 292 298 298 296 298 295 295 293
317 316 315 318 316 314 304 291 292 295 300 296 296 294 294 294 295 293 293 295 299 298 293 293 293 297 298 299 300 293 290 298 289 283 285 290 292 297 292 291 292 295 294 293 292
312 312 312 319 316 310 299 293 297 302 302 302 293 296 293 293 292 292 294 299 298 300 302 298 292 294 294 295 296 295 297 287 289 283 283 289 291 292 290 290 291 293 292 292 292
309 303 314 319 313 303 291 292 299 304 304 300 297 296 297 295 294 292 296 299 300 298 299 299 295 290 291 290 291 290 290 291 292 291 286 285 289 299 298 296 292 292 293 293 292
305 296 315 317 299 300 294 297 300 301 304 302 302 300 298 298 294 294 294 298 300 299 293 298 294 292 291 295 295 296 293 292 288 285 287 287 290 294 300 300 297 294 294 294 294
300 301 315 313 294 294 298 298 300 299 301 301 299 301 302 297 292 296 298 302 300 297 296 297 291 286 289 289 290 288 292 293 292 290 287 286 290 293 293 295 296 295 295 295 294
301 295 301 305 305 298 294 295 294 301 300 302 301 301 300 298 299 297 297 298 299 298 299 298 293 290 288 292 293 287 289 291 290 286 288 289 292 290 291 292 293 295 295 295 294
300 293 299 293 294 298 298 297 294 294 299 301 298 298 297 294 296 295 298 293 294 296 296 296 289 292 293 295 295 292 290 290 288 290 288 291 292 296 293 294 295 295 295 294 293
295 293 297 294 296 296 298 294 294 296 297 295 295 298 299 295 297 295 297 297 295 293 292 294 288 290 288 293 293 290 291 291 290 290 291 292 293 300 297 297 296 295 294 293 293
297 297 298 294 292 291 292 296 295 298 299 300 298 297 296 298 303 303 302 301 300 295 289 289 287 286 284 290 289 283 289 290 292 292 293 288 294 296 295 293 294 294 293 293 293
Wind_Speed
1 1 2 3 5 5 6 7 8 9 10 11 12 11 11 12 11 4 3 4 3 2 5 1 3 1 2 2 2 3 5 6 5 8 6 7 8 3 1 3 4 4 5 4 4
2 1 2 3 4 5 5 6 8 9 10 11 12 12 11 10 6 6 4 3 3 3 4 5 4 3 3 2 1 5 5 2 4 2 5 8 6 6 5 6 6 6 7 5 5
4 3 3 3 4 5 5 6 8 9 11 12 12 11 10 10 6 3 3 1 2 4 2 2 1 3 3 2 1 0 5 2 4 3 2 7 5 3 6 6 3 3 6 4 4
5 4 4 4 5 5 6 7 8 9 11 13 13 12 12 5 4 3 3 0 2 3 3 4 4 4 3 4 1 6 1 1 2 3 3 5 1 5 6 6 7 7 5 3 5
6 6 5 5 5 6 7 8 9 10 11 13 13 12 7 5 2 3 1 3 4 3 4 3 4 2 6 1 2 6 3 3 3 4 3 1 7 7 7 7 7 6 5 5 5
7 7 7 5 5 6 7 8 9 11 12 12 11 12 5 10 3 2 4 3 3 5 4 4 2 2 2 2 5 3 3 4 5 7 6 6 9 3 7 9 7 6 5 5 5
8 8 8 7 6 5 6 7 9 11 10 9 8 5 6 8 1 3 3 2 1 2 3 1 1 4 1 2 1 1 5 9 11 9 5 7 11 13 9 11 9 7 5 3 4
9 8 8 7 7 6 5 7 8 10 7 6 8 5 7 2 1 4 5 4 3 2 2 2 1 2 4 2 3 4 4 8 8 8 4 9 12 9 11 13 11 8 5 3 3
11 10 9 8 6 6 6 5 9 7 6 8 5 4 6 2 4 5 4 4 6 5 4 3 2 2 4 7 7 8 10 9 6 9 5 12 5 9 12 12 10 9 7 5 5
13 11 10 8 6 5 6 5 4 6 5 4 3 5 7 2 4 4 2 7 3 9 6 5 6 8 8 10 11 9 11 10 11 7 8 11 14 8 12 12 12 9 8 7 6
13 12 11 9 7 4 6 5 6 5 6 9 3 4 4 4 3 5 5 7 5 9 9 9 10 14 18 17 17 7 9 12 7 4 4 13 15 12 14 13 14 12 11 10 9
14 14 12 9 7 6 5 5 5 4 8 15 13 9 2 5 4 8 7 11 9 13 12 6 16 18 12 10 14 13 14 16 13 4 4 12 16 16 15 19 17 15 12 11 9
16 14 13 10 7 4 9 7 4 4 7 10 10 9 7 10 8 15 16 8 10 15 16 17 4 5 10 8 12 15 15 14 14 2 10 13 19 22 24 16 11 11 11 12 13
17 16 13 12 5 7 8 10 5 4 8 14 10 8 9 9 9 4 17 5 6 15 14 15 12 6 10 15 14 16 13 14 11 7 10 5 11 12 10 16 16 14 15 14 14
21 20 18 19 4 13 3 10 9 4 11 4 9 3 5 16 11 5 4 6 13 10 8 5 9 12 14 12 11 7 2 6 10 13 14 16 10 13 10 16 19 18 17 16 15
21 21 21 13 5 8 7 10 7 7 20 7 7 8 11 12 4 6 7 3 4 8 9 11 3 6 9 3 8 11 5 3 2 7 11 18 17 11 12 15 16 18 19 19 18
24 25 23 12 11 11 10 9 8 16 7 12 8 10 15 10 8 9 15 14 13 10 17 14 15 6 5 6 3 13 9 5 6 7 9 1 15 14 5 7 7 20 21 21 19
26 26 23 12 12 15 9 11 15 31 30 10 5 10 15 13 9 10 13 14 23 17 10 15 10 23 17 22 10 20 18 7 7 7 5 2 11 7 2 8 5 15 18 19 19
18 14 13 13 13 11 10 20 31 33 21 15 10 9 15 10 7 12 15 14 15 22 15 11 11 6 9 8 16 8 15 13 5 2 5 8 11 9 8 8 8 14 18 20 20
3 8 14 19 18 12 14 23 29 23 22 19 27 19 18 16 14 16 18 13 14 23 15 4 7 5 6 3 5 8 8 6 7 7 8 10 16 10 9 15 15 17 20 19 18
5 5 7 19 14 14 15 20 29 17 25 19 24 23 20 16 18 14 10 7 19 20 20 8 6 7 7 13 18 8 10 10 6 9 5 6 8 8 15 17 21 18 18 20 20
3 7 8 18 17 11 19 39 19 24 13 17 16 24 19 18 17 19 18 14 19 18 18 15 3 10 14 3 9 17 14 20 7 6 6 4 14 2 1 11 14 17 17 18 20
4 5 7 17 19 16 22 27 25 28 31 22 23 17 20 19 11 20 16 11 17 18 20 15 5 3 5 2 1 10 15 15 17 2 16 7 7 2 4 4 10 15 17 17 18
3 4 7 8 14 22 17 24 30 22 24 29 21 15 17 21 19 11 17 8 14 16 7 12 7 13 19 9 10 11 17 21 18 13 15 28 16 6 9 11 12 12 14 17 18
3 5 3 5 17 18 24 16 24 23 25 21 24 29 23 18 20 25 14 4 2 7 7 14 13 18 25 23 16 9 19 24 29 35 19 26 24 15 14 16 17 15 13 15 16
4 5 3 4 2 15 18 23 26 25 17 32 19 29 26 28 28 17 19 17 12 10 10 4 10 16 24 22 22 21 19 25 31 30 31 28 28 2 15 12 11 14 14 15 15
1 3 5 6 4 7 4 9 23 23 19 18 34 24 25 35 24 18 13 15 13 17 15 12 7 8 17 13 18 8 40 22 24 30 23 29 26 7 7 11 11 10 10 11 13
Wind_Direction
92 10 1 9 4 10 10 8 359 352 347 348 339 335 333 330 308 226 256 19 339 330 296 234 231 273 243 100 343 294 243 218 195 204 163 147 180 148 63 177 80 37 38 43 11
229 282 324 347 357 351 357 355 353 347 344 340 335 330 329 330 273 252 57 348 324 182 230 222 207 213 171 139 194 268 264 194 10 159 172 165 212 169 207 176 152 125 98 64 58
248 267 290 315 330 335 342 347 344 340 337 333 331 326 324 310 275 89 26 333 169 253 256 254 254 251 219 263 152 125 293 108 136 103 129 161 194 203 232 224 28 196 123 74 60
241 255 285 306 319 325 332 333 336 336 334 332 328 326 321 256 305 77 20 283 184 271 199 179 213 224 262 242 202 243 151 193 117 142 171 194 96 226 238 63 84 75 87 92 59
246 252 261 286 307 315 322 326 330 332 329 327 323 328 304 250 300 103 126 145 184 195 208 213 237 273 262 257 222 247 169 198 159 174 227 359 239 265 213 132 119 109 110 82 64
249 256 262 268 283 300 312 321 324 328 327 324 321 317 268 265 93 100 121 141 215 208 190 228 303 296 297 255 248 26 237 217 207 216 226 234 242 206 196 150 147 146 111 85 66
230 245 255 267 274 285 299 310 319 324 325 329 330 300 254 275 14 135 145 113 168 268 202 354 298 238 166 203 163 257 262 221 224 217 238 217 245 229 143 166 161 153 143 105 59
223 233 243 256 272 280 289 305 321 320 319 326 317 279 271 59 142 183 173 119 110 85 48 93 217 126 289 108 188 244 244 244 115 173 160 203 264 156 155 167 170 165 159 143 78
225 226 235 243 259 276 286 304 306 303 303 301 275 274 258 137 193 162 217 173 125 107 81 127 212 229 179 225 232 210 264 213 181 199 148 204 259 144 174 190 177 185 179 172 144
222 218 225 230 246 265 280 274 301 275 228 250 259 256 181 177 129 153 141 165 143 142 134 183 209 219 223 215 233 257 225 248 260 154 220 212 247 166 191 203 204 196 188 180 171
209 212 214 222 223 234 267 237 226 201 210 220 214 253 146 104 176 177 159 161 148 199 204 202 217 217 223 226 254 294 282 268 281 90 268 242 251 232 193 212 217 207 197 188 178
206 203 205 207 202 199 249 242 0 10 291 228 241 251 189 190 154 176 184 185 194 208 207 183 230 238 241 269 237 240 253 257 268 141 256 272 262 258 204 211 214 212 206 190 164
205 204 199 183 180 193 217 228 338 318 259 243 206 221 193 178 212 179 183 200 209 217 200 227 216 257 195 210 220 234 240 252 263 129 237 274 266 252 243 203 219 240 208 186 181
204 197 190 151 165 205 219 230 241 320 267 242 204 216 162 187 226 145 199 183 202 221 213 242 232 160 207 228 219 246 224 255 265 253 264 160 284 281 240 201 210 206 202 188 177
200 194 174 173 170 190 162 173 198 262 272 28 128 68 161 191 117 169 172 186 207 185 180 201 187 200 212 222 208 250 58 233 252 261 274 250 267 261 248 217 206 205 198 192 176
200 193 177 190 253 189 140 143 163 207 239 160 132 167 161 198 154 113 171 240 318 202 236 260 19 212 227 85 207 129 124 117 229 255 250 231 228 250 196 232 223 187 191 185 176
206 197 187 183 192 152 150 157 181 222 142 184 168 178 194 173 171 180 180 186 184 188 221 214 218 173 185 147 162 201 178 237 232 210 255 121 215 252 205 173 209 181 185 181 175
214 202 198 205 181 151 167 191 210 228 219 101 138 167 186 160 197 187 177 206 218 229 270 209 219 198 199 214 189 200 203 202 242 225 260 50 233 244 283 106 114 175 179 175 178
230 211 205 191 171 156 175 198 217 215 201 182 145 190 203 202 188 180 208 215 204 206 203 210 237 174 179 219 210 172 223 242 307 154 268 212 241 265 156 175 165 171 174 181 183
253 225 215 176 172 173 202 211 233 226 239 215 211 196 197 194 187 194 187 218 211 197 211 235 247 168 144 162 252 221 157 171 219 225 237 245 244 235 211 199 183 179 182 182 183
238 239 184 174 177 192 204 223 226 226 212 213 215 216 224 192 200 196 205 176 196 188 199 210 239 128 153 203 186 178 203 225 246 227 252 272 247 193 204 196 188 187 186 184 185
184 237 171 167 199 198 205 214 215 223 244 229 235 220 212 210 199 205 214 209 192 157 181 203 255 236 217 102 276 234 213 205 213 191 238 280 257 116 239 185 175 183 184 185 187
234 217 198 190 206 209 220 219 218 219 213 219 226 229 219 211 220 220 212 214 177 174 172 163 201 236 249 197 186 228 221 227 231 51 228 210 248 73 122 142 167 177 181 182 183
238 212 204 215 233 211 210 218 212 218 223 223 223 226 224 229 213 234 220 171 187 201 158 162 148 205 232 222 163 201 211 210 216 226 233 236 249 178 204 190 181 184 179 182 183
203 222 249 212 236 258 207 207 215 209 216 208 223 228 216 231 232 230 217 119 172 212 172 179 221 218 241 256 267 212 214 205 210 227 216 246 237 226 193 197 192 182 177 178 182
273 169 190 287 317 234 219 206 213 214 201 216 220 218 223 219 215 216 224 214 205 180 187 184 232 224 256 243 243 241 237 217 216 229 234 249 254 229 182 187 183 179 171 186 188
241 288 277 171 228 251 269 238 216 217 224 221 221 225 222 230 236 252 239 226 219 194 183 161 200 190 245 223 245 273 235 227 229 225 225 234 246 167 161 180 193 175 178 196 200